Flag for Uzbekistan Weather past 2 weeks in Tashkent, Uzbekistan

Now
25 °F

Ice fog.


Feels Like: 18 °F
Forecast: 13 / 33 °F
Wind: 6 mph from South

Location: Tashkent

Current Time: Jan 26, 2015 at 5:45:42 PM

Latest Report: Jan 26, 2015 at 5:00 PM


Visibility: 2 mi

Pressure: 30.54 "Hg

Humidity: 80%

Dew point: 19 °F

Location of TashkentLocation

Historic Weather in Tashkent — Graph

°F

Tashkent temperature yesterday

Maximum temperature yesterday: 28 °F (at 11:30 AM)
Minimum temperature yesterday: 18 °F (at 7:00 AM)
Average temperature yesterday: 23 °F

Past Weeks' High & Low Weather Summary

 TemperatureHumidityPressure
High61 °F (Jan 17, 12:30 PM)100% (Jan 11, 4:00 PM)30.60 "Hg (Jan 11, 4:00 PM)
Low18 °F (Jan 25, 7:00 AM)21% (Jan 16, 2:30 PM)30.01 "Hg (Jan 17, 2:00 AM)
Average35 °F81%30.30 "Hg
* Reported Jan 11 4:00 PM — Jan 26 4:30 PM, Tashkent, Weather by CustomWeather, © 2014

Note: Actual official high and low records may vary slightly from our data, if they occured in-between our weather recording intervals... More about our weather records

Advertising

Tashkent weather history for previous 24 hours

 ConditionsComfort  
Time TempWeatherWind HumidityBarometerVisibility
4:30 PM
Jan 26
27 °FIce fog.3 mph74%30.54 "Hg2 mi
4:00 PM27 °FIce fog.3 mph74%30.51 "Hg2 mi
3:30 PM27 °FIce fog.3 mph74%30.51 "Hg2 mi
3:00 PM27 °FIce fog.3 mph74%30.51 "Hg2 mi
2:30 PM27 °FIce fog.5 mph74%30.51 "Hg2 mi
2:00 PM27 °FIce fog.5 mph74%30.51 "Hg2 mi
1:30 PM27 °FIce fog.5 mph69%30.54 "Hg2 mi
1:00 PM27 °FIce fog.3 mph74%30.54 "Hg2 mi
12:30 PM25 °FIce fog.3 mph80%30.54 "Hg2 mi
12:00 PM25 °FIce fog.5 mph80%30.54 "Hg1 mi
11:30 AM25 °FIce fog.5 mph80%30.54 "Hg1 mi
11:00 AM23 °FIce fog.5 mph86%30.54 "Hg1 mi
10:30 AM23 °FIce fog.5 mph86%30.54 "Hg1 mi
10:00 AM23 °FIce fog.5 mph86%30.54 "Hg1 mi
9:30 AM23 °FIce fog.2 mph86%30.54 "Hg2 mi
9:00 AM21 °FIce fog.No wind93%30.54 "Hg2 mi
8:30 AM21 °FIce fog.1 mph86%30.54 "Hg2 mi
8:00 AM21 °FIce fog.3 mph86%30.54 "Hg2 mi
7:30 AM21 °FIce fog.2 mph86%30.51 "Hg2 mi
7:00 AM19 °FIce fog.5 mph93%30.51 "Hg2 mi
6:30 AM19 °FIce fog.6 mph93%30.51 "Hg2 mi
6:00 AM21 °FIce fog.6 mph86%30.51 "Hg2 mi
5:30 AM21 °FIce fog.5 mph86%30.51 "Hg2 mi
5:00 AM19 °FIce fog.2 mph93%30.51 "Hg2 mi
4:30 AM19 °FIce fog.1 mph93%30.51 "Hg2 mi
4:00 AM19 °FIce fog.2 mph93%30.51 "Hg2 mi
3:30 AM19 °FIce fog.5 mph93%30.51 "Hg2 mi
3:00 AM21 °FIce fog.2 mph86%30.51 "Hg2 mi
2:30 AM21 °FIce fog.3 mph86%30.51 "Hg2 mi
2:00 AM21 °FIce fog.3 mph86%30.51 "Hg2 mi
1:30 AM21 °FIce fog.5 mph86%30.51 "Hg2 mi
1:00 AM21 °FIce fog.5 mph93%30.51 "Hg2 mi
12:30 AM21 °FIce fog.5 mph93%30.51 "Hg2 mi
12:00 AM21 °FIce fog.6 mph93%30.51 "Hg1 mi
11:30 PM
Jan 25
21 °FIce fog.7 mph93%30.51 "Hg1 mi
11:00 PM23 °FIce fog.7 mph86%30.51 "Hg1 mi
10:30 PM23 °FIce fog.5 mph93%30.51 "Hg1 mi
10:00 PM23 °FIce fog.2 mph93%30.51 "Hg1 mi
9:30 PM23 °FIce fog.2 mph86%30.51 "Hg1 mi
9:00 PM23 °FIce fog.3 mph86%30.54 "Hg1 mi
8:30 PM23 °FIce fog.2 mph86%30.54 "Hg1 mi
8:00 PM23 °FIce fog.1 mph86%30.54 "Hg1 mi
7:30 PM23 °FIce fog.2 mph86%30.54 "Hg1 mi
7:00 PM23 °FIce fog.3 mph86%30.54 "Hg2 mi
6:30 PM23 °FClear.6 mph86%30.54 "Hg2 mi
6:00 PM25 °FPassing clouds.2 mph69%30.54 "HgN/A
5:30 PM27 °FClear.1 mph69%30.54 "Hg10 mi
5:00 PM28 °FSunny.2 mph64%30.54 "Hg10 mi
Weather by CustomWeather, © 2014

See weather overviewHow to use our weather pages